Regional Weather Roundup
Issued by NWS

Home | Current Version | Previous Version | Graphics & Text | Print | Product List | Glossary On
Versions: 1 2 3 4 5 6 7 8 9 10 11 12 13 14 15 16 17 18 19 20 21 22 23 24 25 26 27 28 29 30 31 32 33 34 35 36 37 38 39 40 41 42 43 44 45 46 47 48 49 50
000
ASUS43 KBIS 241002
RWRND

NORTH DAKOTA REGIONAL WEATHER ROUNDUP
NATIONAL WEATHER SERVICE BISMARCK ND
500 AM CDT MON JUL 24 2017

NOTE: "FAIR" INDICATES FEW OR NO CLOUDS BELOW 12,000 FEET WITH NO
SIGNIFICANT WEATHER AND/OR OBSTRUCTIONS TO VISIBILITY.


NDZ001>003-009>011-017-241100-
NORTHWEST NORTH DAKOTA

CITY           SKY/WX    TMP DP  RH WIND       PRES   REMARKS
WILLISTON      CLEAR     75  54  47 S10G20    29.79F
MINOT          CLEAR     72  56  57 S16G25    29.84F
MINOT AFB      CLEAR     68  56  65 S9        29.84S
$$

NDZ018>021-031>035-040>046-241100-
SOUTHWEST NORTH DAKOTA

CITY           SKY/WX    TMP DP  RH WIND       PRES   REMARKS
BISMARCK       CLOUDY    66  61  84 S10       29.95R
DICKINSON      CLOUDY    67  55  65 SE15      29.87F
GARRISON         N/A     65  58  78 S10G20    29.90R
HETTINGER ARPT CLOUDY    69  53  56 SE13      29.92F
$$

NDZ004>008-012>016-024-026-027-054-241100-
NORTHEAST NORTH DAKOTA

CITY           SKY/WX    TMP DP  RH WIND       PRES   REMARKS
GRAND FORKS    CLEAR     62  61  96 S10       29.93F
GRND FRKS AFB  CLEAR     60  59  99 S9        29.93F
DEVILS LAKE    CLEAR     65  60  84 S21G26    29.93S
$$

NDZ022-023-025-028>030-036>039-047>053-241100-
SOUTHEAST NORTH DAKOTA

CITY           SKY/WX    TMP DP  RH WIND       PRES   REMARKS
FARGO          NOT AVBL
JAMESTOWN      CLEAR     60  58  92 S12       29.98R
$$




USA.gov is the U.S. government's official web portal to all federal, state and local government web resources and services.